Regional Weather Roundup
Issued by NWS Sterling, VA

Home | Current Version | Previous Version | Text Only | Print | Product List | Glossary Off
Versions: 1 2 3 4 5 6 7 8 9 10 11 12 13 14 15 16 17 18 19 20 21 22 23 24 25 26 27 28 29 30 31 32 33 34 35 36 37 38 39 40 41 42 43 44 45 46 47 48 49 50

612
ASUS41 KLWX 240610
RWRLWX

REGIONAL WEATHER ROUNDUP
NATIONAL WEATHER SERVICE BALTIMORE MD/WASHINGTON DC
200 AM EDT SUN JUL 24 2016

Note: "FAIR" indicates few or no clouds below 12,000 feet
with no significant weather and/or obstructions to visibility.
 TC=TEMPERATURE CELSIUS

 * =Non NWS site. Station does not report precipitation (e.g. rain,
    snow, etc.), thunder, or fog.

DCZ001-MDZ009-015-VAZ040>042-051-053>054-240700-
WASHINGTON METRO

CITY           SKY/WX    TMP DP  RH WIND       PRES   REMARKS
WASHINGTON NAT FAIR      86  71  60 W6        29.94S HX  91
DULLES         FAIR      75  71  87 N3        29.96S
ANDREWS AFB    PTCLDY    82  73  73 W7        29.94R
FT BELVOIR     FAIR      76  73  92 CALM      29.94S
QUANTICO       FAIR      81  76  84 NW7       29.95R
COLLEGE PARK*  FAIR      75  72  88 CALM      29.94R
LEESBURG*      FAIR      79  73  83 W10       29.97S
MANASSAS*      FAIR      75  75 100 S5        29.95S
GAITHERSBURG*  PTCLDY    75  70  83 CALM      30.00S

$$

MDZ006>007-011-014-240700-
BALTIMORE METRO

CITY           SKY/WX    TMP DP  RH WIND       PRES   REMARKS
BWI AIRPORT    MOCLDY    73  70  90 NW3       29.93S
MD SCIENCE CTR   N/A     83  70  64 MISG      29.93S
MARTIN STATE   CLEAR     77  73  88 CALM      29.94R
ANNAPOLIS      PTCLDY    80  76  87 NW5       29.92R
FORT MEADE*    PTCLDY    72  70  94 CALM      29.96R

$$

MDZ012-015-019>023-240700-
MARYLAND EASTERN SHORE

CITY           SKY/WX    TMP DP  RH WIND       PRES   REMARKS
OCEAN CITY     CLOUDY    83  73  72 VRB5      29.92S
SALISBURY      PTCLDY    81  78  91 SW6       29.92S
BAY BRIDGE AP* PTCLDY    81  75  83 W5        29.92S
CAMBRIDGE*     CLEAR     77  75  94 CALM      29.92R
EASTON*        CLEAR     78  78 100 CALM      29.95S

$$

MDZ017>025-240700-
SOUTHERN MARYLAND

CITY           SKY/WX    TMP DP  RH WIND       PRES   REMARKS
PATUXENT RIVER CLEAR     83  75  77 SW9       29.92S HX  90
ST INIGOES     PTCLDY    85  77  77 SW9       29.92S HX  95
LEONARDTOWN*   PTCLDY    81  73  78 SW3       29.95R

$$

MDZ003>005-240700-
NORTH CENTRAL MARYLAND

CITY           SKY/WX    TMP DP  RH WIND       PRES   REMARKS
FREDERICK*     CLEAR     70  70 100 CALM      29.98S FOG
HAGERSTOWN APT CLOUDY    75  69  81 NE6       29.98S

$$

MDZ501>502-240700-
WESTERN MARYLAND

CITY           SKY/WX    TMP DP  RH WIND       PRES   REMARKS
OAKLAND*       CLEAR     70  68  94 W5        30.13F
CUMBERLAND*    PTCLDY    75  72  88 E3        30.05R

$$

VAZ025>031-240700-
SHENANDOAH VALLEY

CITY           SKY/WX    TMP DP  RH WIND       PRES   REMARKS
WINCHESTER*    FAIR      79  70  73 W3        29.99S
FRONT ROYAL*   FAIR      75  70  83 S5        29.99S
LURAY*         FAIR      73  73 100 CALM      30.01S FOG
NEW MARKET*    FAIR     N/A N/A N/A CALM      30.00S
STAUNTON*      FAIR      71  69  95 CALM      30.05S
WAYNESBORO*    FAIR      74  69  85 S5        30.05S

$$

WVZ021-048>050-054>055-240700-
EASTERN WEST VIRGINIA PANHANDLE

CITY           SKY/WX    TMP DP  RH WIND       PRES   REMARKS
MARTINSBURG    FAIR      75  69  81 E3        29.98R
PETERSBURG*    FAIR      71  69  92 CALM      30.02S

$$

VAZ036>039-050-240700-
CENTRAL FOOTHILLS

CITY           SKY/WX    TMP DP  RH WIND       PRES   REMARKS
CHARLOTTESVILL FAIR      78  73  84 CALM      29.98S
CULPEPER*      FAIR      75  73  93 CALM      29.97S
ORANGE*          N/A     77  77 100 CALM      29.99S
GORDONSVILLE*  FAIR      74  74  98 CALM      29.97S
WARRENTON*     HAZE      76  69  80 CALM      29.95F VSB 1

$$

VAZ055>057-240700-
NORTH AND CENTRAL PIEDMONT

CITY           SKY/WX    TMP DP  RH WIND       PRES   REMARKS
FREDERICKSBRG* FAIR      77  77 100 CALM      29.94S
STAFFORD*      FAIR      76  72  89 CALM      29.99S

$$

NCZ024-NYZ072-PAZ021-071-VAZ022-071-240700-
OTHER REGIONAL OBSERVATIONS

CITY           SKY/WX    TMP DP  RH WIND       PRES   REMARKS
NEW YORK CITY  PTCLDY    79  59  50 NE3       29.95R
PHILADELPHIA   PTCLDY    77  68  73 N5        29.93S
PITTSBURGH     MOCLDY    73  67  81 CALM      30.03F
ROANOKE        FAIR      76  69  79 CALM      30.06R
RICHMOND       MOCLDY    82  74  76 SW9       29.95F
RALEIGH        PTCLDY    76  73  91 SW6       30.01R

$$

ANZ530>537-240700-
MARINE OBSERVATIONS

STATION/POSITION TIME  TEMP    WIND        PRES
                       AIR SEA DIR/SP/G
                 (UTC) (F)     (DEG/KT/KT) (MB)
THOMAS PT LIGHT  0600   82 81  310/  2/  3 1014.6R
BALT KEY BRIDGE  0542   81     280/  6/  6 1013.4R
COVE POINT       0542   85     280/  7/  9 1013.6F
LEWISETTA        0542   85 86  260/ 10/ 13 1013.1S
SOLOMONS ISLAND  0542   84 85  250/  6/  7   N/A
PINEY POINT      0542          270/  5/  7   N/A

$$





USA.gov is the U.S. government's official web portal to all federal, state and local government web resources and services.